www.pogodaiklimat.ru

Погода и климат >> Архив погоды >> Норвегия >> Гварв


ПОГОДА во Гварве

  • Прогноз погоды во Гварве
  • Монитор погоды во Гварве

АРХИВ ПОГОДЫ во Гварве

Время (UTC), дата Ветер
(напр.,м/с)
 
Видим.   Явления Облачность Т
(С)
Тd
(С)
f
(%)
Тe
(С)
Тes
(С)
Комфортность P
(гПа)
Po
(гПа)
Тmin
(С)
Tmax
(С)
R
(мм)
R24
(мм)
S
(см)
07 17.06 ЮВ 2-3
{4}
н/о н/о +16.3 +7.5 56 +16 +16 1015.9 1004.9
08 17.06 Ю 3-5
{5}
н/о н/о +17.6 +6.5 48 +18 +18 1015.8 1004.8
09 17.06 ЮВ 2-4
{5}
н/о н/о +18.8 +6.0 43 +20 +20 1015.6 1004.7
10 17.06 Ю 5-8
{10}
н/о н/о +19.8 +7.5 45 +21 +21 комфорт 1015.3 1004.4
11 17.06 ЮЗ 4-7
{8}
н/о н/о +19.4 +7.2 45 +20 +20 1015.4 1004.5
12 17.06 Ю 3-5
{10}
н/о н/о +19.3 +7.4 46 +20 +20 1015.5 1004.6
13 17.06 Ю 5-9
{9}
н/о н/о +18.9 +8.6 51 +19 +19 1015.4 1004.5
14 17.06 Ю 4-7
{9}
н/о н/о +19.6 +9.8 53 +21 +21 комфорт 1015.5 1004.6
15 17.06 Ю 4-6
{8}
н/о н/о +18.3 +10.2 59 +18 +18 1015.0 1004.0
16 17.06 Ю 4-6
{7}
н/о н/о +18.4 +10.8 61 +19 +19 1014.8 1003.8
17 17.06 Ю 4-7
{8}
н/о н/о +18.3 +10.2 59 +18 +18 1014.3 1003.4
18 17.06 Ю 4-8
{9}
н/о н/о +17.5 +10.2 62 +17 +17 1014.4 1003.4 +14.6 +20.6
19 17.06 Ю 4-7
{8}
н/о н/о +16.8 +10.4 66 +16 +16 1014.5 1003.5
20 17.06 Ю 4-6
{7}
н/о н/о +15.9 +8.9 63 +15 +15 1014.8 1003.8
21 17.06 Ю 3-5
{7}
н/о н/о +15.0 +9.4 69 +14 +14 1015.4 1004.3
22 17.06 Ю 4-6
{7}
н/о н/о +14.3 +9.5 73 +13 +13 1015.6 1004.5
23 17.06 Ю 3-6
{7}
н/о н/о +13.7 +9.6 76 +13 +13 1015.6 1004.5
00 18.06 Ю 3-6
{8}
н/о н/о +13.2 +9.8 80 +12 +12 1015.2 1004.0
01 18.06 Ю 4-7
{7}
н/о н/о +12.7 +9.7 82 +11 +11 1015.4 1004.2
02 18.06 Ю 4-6
{7}
н/о н/о +12.4 +9.6 83 +10 +10 1015.0 1003.8
03 18.06 Ю 2-3
{6}
н/о н/о +11.8 +9.5 86 +11 +11 1014.9 1003.7
04 18.06 Ю 3-4
{5}
н/о н/о +12.0 +9.7 86 +10 +10 1014.6 1003.4
05 18.06 Ю 2-6
{8}
н/о н/о +12.6 +9.6 82 +12 +12 1014.5 1003.3
06 18.06 Ю 3-7
{8}
н/о н/о +13.0 +9.8 81 +12 +12 1014.0 1002.9 +11.8 +17.7
07 18.06 Ю 4-7
{7}
н/о н/о +13.9 +9.8 76 +12 +12 1013.6 1002.5
08 18.06 ЮВ 4-7
{8}
н/о н/о +15.3 +10.5 73 +14 +14 1013.7 1002.6
09 18.06 Ю 4-6
{7}
н/о н/о +16.1 +11.1 72 +15 +15 1013.2 1002.2
10 18.06 ЮВ 4-6
{7}
н/о н/о +18.0 +11.1 64 +18 +18 1012.7 1001.8
11 18.06 ЮВ 4-7
{7}
н/о н/о +18.5 +10.4 59 +19 +19 1012.3 1001.4
12 18.06 ЮВ 3-5
{8}
н/о н/о +18.8 +10.6 59 +20 +20 1012.2 1001.3
13 18.06 ЮВ 4-7
{7}
н/о н/о +19.3 +10.8 58 +20 +20 1011.7 1000.8
14 18.06 ЮВ 5-8
{8}
н/о н/о +19.7 +12.9 65 +21 +21 комфорт 1011.4 1000.5
15 18.06 ЮВ 4-7
{9}
н/о н/о +19.0 +12.0 64 +20 +20 1010.8 999.9
16 18.06 Ю 3-6
{7}
н/о н/о +19.4 +11.7 61 +21 +21 комфорт 1010.3 999.4
17 18.06 Ю 5-8
{8}
н/о н/о +19.5 +11.5 60 +21 +21 комфорт 1010.1 999.2
18 18.06 Ю 4-6
{9}
н/о н/о +18.4 +11.5 64 +19 +19 1010.0 999.1 +13.0 +19.8
19 18.06 Ю 4-8
{8}
н/о н/о +17.6 +11.2 66 +17 +17 1010.1 999.2
20 18.06 Ю 3-5
{6}
н/о н/о +16.8 +11.3 70 +17 +17 1010.5 999.5
21 18.06 Ю 1-2
{4}
н/о н/о +15.6 +11.2 75 +16 +16 1010.7 999.7
22 18.06 Ю 2-4
{4}
н/о н/о +14.5 +10.9 79 +14 +14 1011.0 999.9
23 18.06 В 1-2
{4}
н/о н/о +12.3 +9.9 85 +12 +12 1011.0 999.9
00 19.06 З 1-2
{8}
н/о н/о +11.5 +10.1 91 +11 +11 1011.4 1000.2
01 19.06 СВ 1-2
{2}
н/о н/о +10.6 +9.5 93 +10 +10 1011.4 1000.2
02 19.06 В 1-2
{2}
н/о н/о +10.3 +9.2 93 +10 +10 1011.8 1000.6
03 19.06 СЗ 1-2
{2}
н/о н/о +9.7 +8.5 92 +9 +9 1011.9 1000.6
04 19.06 В 1-2
{3}
н/о н/о +10.1 +8.9 92 +10 +10 1011.8 1000.6
05 19.06 СВ 2-2
{3}
н/о н/о +10.4 +8.8 90 +9 +9 1012.0 1000.8
06 19.06 СВ 1-2
{3}
н/о н/о +12.1 +9.5 84 +12 +12 1012.0 1000.8 +9.7 +18.4
07 19.06 В 1-2
{2}
н/о н/о +13.3 +9.2 76 +14 +14 1011.8 1000.7
08 19.06 С 1-2
{2}
н/о н/о +14.1 +9.3 73 +15 +15 1011.6 1000.5
09 19.06 Ю 1-1
{2}
н/о н/о +16.0 +9.4 65 +17 +17 1011.4 1000.4
10 19.06 ЮЗ 1-2
{2}
н/о н/о +16.8 +7.5 54 +18 +18 1011.2 1000.2
11 19.06 С 1-2
{2}
н/о н/о +18.1 +6.9 48 +19 +19 1010.9 1000.0
12 19.06 ЮЗ 1-2
{2}
н/о н/о +18.9 +6.4 44 +20 +20 1010.5 999.6
13 19.06 Ю 1-2
{2}
н/о н/о +17.6 +8.2 54 +19 +19 1010.4 999.5
14 19.06 Ю 2-4
{4}
н/о н/о +17.0 +9.7 62 +17 +17 1009.9 998.9
15 19.06 ЮВ 1-2
{3}
н/о н/о +15.3 +11.3 77 +16 +16 1009.8 998.8 0.1
16 19.06 -2
{2}
н/о н/о +15.8 +12.0 78 1009.0 998.0
17 19.06 СЗ 2-3
{3}
н/о н/о +16.3 +11.9 75 +16 +16 1008.2 997.2
18 19.06 СВ 1-3
{4}
н/о н/о +15.5 +12.4 82 +16 +16 1007.9 996.9 +12.1 +19.4 0.1
19 19.06 СЗ 1-2
{2}
н/о н/о +14.8 +12.3 85 +15 +15 1007.1 996.1
20 19.06 С 1-2
{4}
н/о н/о +13.7 +12.3 91 +14 +14 1008.1 997.0 5
21 19.06 СВ 2-3
{4}
н/о н/о +12.0 +10.4 90 +11 +11 1007.2 996.1 2
22 19.06 С 2-3
{4}
н/о н/о +11.5 +10.1 91 +10 +10 1005.8 994.7 2
23 19.06 В 1-2
{3}
н/о н/о +11.2 +9.6 90 +11 +11 1005.8 994.7
00 20.06 СВ 1-2
{4}
н/о н/о +11.4 +10.2 92 +11 +11 1005.4 994.3
01 20.06 СВ 1-2
{2}
н/о н/о +11.6 +10.4 92 +11 +11 1005.1 994.0
02 20.06 СВ 2-3
{4}
н/о н/о +11.6 +10.4 92 +10 +10 1004.8 993.7
03 20.06 В 1-2
{3}
н/о н/о +11.8 +10.7 93 +12 +12 1004.5 993.4
04 20.06 СВ 1-2
{2}
н/о н/о +11.6 +10.5 93 +11 +11 1004.1 993.0
05 20.06 СВ 1-2
{3}
н/о н/о +12.1 +10.8 92 +12 +12 1004.3 993.2
06 20.06 СВ 1-2
{4}
н/о н/о +13.1 +11.2 88 +13 +13 1004.2 993.2 +11.2 +15.4 9
07 20.06 СВ 1-2
{2}
н/о н/о +13.3 +11.5 89 +13 +13 1004.0 993.0
08 20.06 СВ 1-2
{3}
н/о н/о +13.4 +11.5 88 +14 +14 1004.1 993.1
09 20.06 С 1-1
{2}
н/о н/о +13.3 +11.7 90 +13 +13 1004.6 993.6 0.3
10 20.06 СЗ 1-1
{1}
н/о н/о +13.6 +11.7 88 +14 +14 1004.7 993.7 1
11 20.06 ЮВ 1-1
{2}
н/о н/о +13.8 +12.0 89 +14 +14 1004.8 993.8 0.8
12 20.06 Ю 1-2
{3}
н/о н/о +14.3 +12.0 86 +15 +15 1004.9 993.9 1
13 20.06 Ю 2-3
{3}
н/о н/о +14.9 +12.6 86 +15 +15 1004.7 993.7 0.3
14 20.06 Ю 3-4
{4}
н/о н/о +15.8 +13.6 87 +15 +15 1004.6 993.7 0.2
15 20.06 Ю 3-4
{5}
н/о н/о +17.3 +14.2 82 +17 +17 1004.2 993.3
16 20.06 Ю 3-5
{5}
н/о н/о +17.7 +13.6 77 +18 +18 1003.9 993.0
17 20.06 ЮВ 4-6
{6}
н/о н/о +18.5 +14.0 75 +19 +19 1003.7 992.9
18 20.06 Ю 2-4
{6}
н/о н/о +17.2 +13.1 77 +18 +18 1003.8 992.9 +12.9 +18.6 4
19 20.06 Ю 3-5
{5}
н/о н/о +16.7 +12.9 78 +16 +16 1004.0 993.1
20 20.06 З 2-4
{5}
н/о н/о +17.1 +10.7 66 +17 +17 1004.5 993.6 0.1
21 20.06 З 1-3
{5}
н/о н/о +15.4 +7.9 61 +16 +16 1005.4 994.4
22 20.06 Ю 1-2
{3}
н/о н/о +12.7 +8.0 73 +13 +13 1006.2 995.1
23 20.06 СЗ 2-6
{6}
н/о н/о +12.9 +6.9 67 +12 +12 1006.8 995.7
00 21.06 Ю 2-2
{6}
н/о н/о +11.4 +7.1 75 +10 +10 1007.5 996.4
01 21.06 СЗ 1-2
{3}
н/о н/о +9.3 +7.1 86 +9 +9 1007.8 996.6
02 21.06 СЗ 1-2
{2}
н/о н/о +8.3 +6.8 90 +7 +7 1008.1 996.8
03 21.06 З 1-2
{3}
н/о н/о +8.5 +7.1 91 +8 +8 1008.2 996.9
04 21.06 СЗ 1-2
{3}
н/о н/о +8.9 +6.9 87 +8 +8 1008.4 997.2
05 21.06 Ю 1-2
{2}
н/о н/о +11.5 +7.6 77 +11 +11 1008.8 997.7
06 21.06 В 1-2
{3}
н/о н/о +14.0 +8.8 71 +14 +14 1009.0 997.9 +7.9 +17.5 0.1
07 21.06 З 2-3
{4}
н/о н/о +15.3 +4.4 48 +15 +15 1009.3 998.3
08 21.06 З 2-6
{7}
н/о н/о +16.5 +3.2 41 +17 +17 1009.5 998.5
09 21.06 ЮЗ 3-5
{5}
н/о н/о +15.8 +3.6 44 +15 +15 1009.7 998.7
10 21.06 Ю 1-3
{5}
н/о н/о +16.1 +4.8 47 +17 +17 1009.7 998.7
11 21.06 ЮЗ 2-5
{8}
н/о н/о +13.1 +9.2 77 +12 +12 1010.2 999.1 0.1
12 21.06 В 2-3
{8}
н/о н/о +14.8 +9.2 69 +15 +15 1010.0 999.0 0.3
13 21.06 ЮВ 4-7
{7}
н/о н/о +16.9 +8.3 57 +16 +16 1009.7 998.7
14 21.06 Ю 4-7
{7}
н/о н/о +16.4 +7.6 56 +16 +16 1009.5 998.5
15 21.06 З 3-6
{9}
н/о н/о +16.4 +5.7 49 +16 +16 1009.8 998.8
16 21.06 З 4-8
{11}
н/о н/о +14.9 +2.8 44 +14 +14 1010.5 999.5
17 21.06 ЮВ 1-1
{8}
н/о н/о +15.2 +4.3 48 +16 +16 1010.3 999.3
18 21.06 З 4-8
{11}
н/о н/о +16.3 +2.0 38 +16 +16 1010.3 999.3 +12.5 +18.3 0.7
19 21.06 З 3-7
{9}
н/о н/о +15.4 +2.9 43 +15 +15 1011.0 1000.0
20 21.06 З 2-5
{10}
н/о н/о +13.3 +3.1 50 +13 +13 1011.9 1000.8
21 21.06 З 2-5
{7}
н/о н/о +12.0 +3.0 54 +11 +11 1012.9 1001.7
22 21.06 Ю 1-2
{4}
н/о н/о +11.0 +3.6 60 +11 +11 1013.6 1002.4
23 21.06 штиль 0-1
{4}
н/о н/о +8.4 +3.5 71 +8 +8 1014.3 1003.0
00 22.06 СВ 1-2
{10}
н/о н/о +7.7 +3.8 76 +7 +7 1014.9 1003.5
01 22.06 С 1-1
{3}
н/о н/о +6.1 +3.4 83 +5 +5 1015.5 1004.1
02 22.06 штиль 0-1
{2}
н/о н/о +6.7 +3.3 79 +6 +6 1016.0 1004.6
03 22.06 С 1-2
{2}
н/о н/о +6.8 +3.4 79 +6 +6 1016.6 1005.2
04 22.06 В 1-2
{3}
н/о н/о +9.3 +4.7 73 +9 +9 1017.1 1005.8
05 22.06 ЮВ 2-3
{3}
н/о н/о +11.2 +5.5 68 +10 +10 1017.6 1006.3
06 22.06 ЮВ 2-4
{4}
н/о н/о +13.2 +4.6 56 +13 +13 1018.1 1006.9 +5.7 +16.4
07 22.06 ЮВ 1-2
{4}
н/о н/о +14.7 +3.8 48 +15 +15 1018.5 1007.4
08 22.06 З 4-9
{10}
н/о н/о +16.0 +2.4 40 +15 +15 1019.0 1007.9
09 22.06 З 3-7
{9}
н/о н/о +17.4 +2.6 37 +17 +17 1018.9 1007.9
10 22.06 З 6-11
{11}
н/о н/о +17.9 +1.4 33 +17 +17 1019.1 1008.1
11 22.06 СЗ 5-8
{11}
н/о н/о +18.5 +3.2 36 +18 +18 1019.6 1008.6
12 22.06 З 3-7
{11}
н/о н/о +19.4 +2.8 33 +20 +20 1019.8 1008.8
13 22.06 З 3-7
{9}
н/о н/о +18.5 +3.2 36 +19 +19 1020.0 1009.0
14 22.06 З 3-8
{11}
н/о н/о +18.7 +0.4 29 +19 +19 1020.1 1009.1
15 22.06 З 5-9
{10}
н/о н/о +19.0 +1.5 31 +19 +19 1020.2 1009.2
16 22.06 З 4-8
{10}
н/о н/о +18.2 +2.1 34 +18 +18 1020.3 1009.3
17 22.06 З 5-9
{9}
н/о н/о +17.7 +2.1 35 +17 +17 1020.7 1009.7
18 22.06 З 3-6
{11}
н/о н/о +17.4 +1.0 33 +17 +17 1020.8 1009.7 +13.4 +19.8
19 22.06 З 4-8
{9}
н/о н/о +16.4 +0.1 33 +16 +16 1021.0 1009.9
20 22.06 З 2-4
{8}
н/о н/о +14.7 +1.3 40 +15 +15 1021.7 1010.5
21 22.06 СЗ 1-2
{3}
н/о н/о +12.0 +2.2 51 +12 +12 1022.1 1010.8
22 22.06 СЗ 2-3
{3}
н/о н/о +10.6 +3.2 60 +10 +10 1022.6 1011.3
23 22.06 СВ 1-2
{2}
н/о н/о +9.1 +3.1 66 +9 +9 1023.1 1011.7
00 23.06 СВ 1-1
{9}
н/о н/о +8.2 +3.1 70 +8 +8 1023.2 1011.8
01 23.06 С 1-1
{2}
н/о н/о +7.8 +3.3 73 +7 +7 1023.4 1011.9
02 23.06 штиль 0-1
{2}
н/о н/о +6.1 +3.1 81 +5 +5 1023.9 1012.4
03 23.06 С 1-2
{3}
н/о н/о +6.2 +3.4 82 +5 +5 1024.0 1012.5
04 23.06 штиль 0-1
{3}
н/о н/о +8.4 +3.9 73 +8 +8 1024.1 1012.7
05 23.06 ЮЗ 1-2
{2}
н/о н/о +9.5 +5.3 75 +9 +9 1024.3 1012.9
06 23.06 СВ 1-3
{3}
н/о н/о +10.7 +6.3 74 +11 +11 1024.5 1013.1 +5.9 +17.4
07 23.06 Ю 1-2
{2}
н/о н/о +13.0 +6.8 66 +13 +13 1024.6 1013.3
08 23.06 Ю 1-2
{2}
н/о н/о +13.8 +6.4 61 +14 +14 1024.6 1013.4
09 23.06 ЮВ 1-3
{3}
н/о н/о +16.2 +5.5 49 +17 +17 1024.5 1013.4
10 23.06 ЮВ 2-3
{3}
н/о н/о +17.7 +5.0 43 +18 +18 1024.3 1013.2
11 23.06 В 2-3
{4}
н/о н/о +18.0 +6.5 47 +19 +19 1024.1 1013.0
12 23.06 Ю 1-4
{4}
н/о н/о +19.7 +5.8 40 +21 +21 комфорт 1024.0 1013.0
13 23.06 ЮВ 1-3
{4}
н/о н/о +20.0 +4.1 35 +22 +22 комфорт 1023.8 1012.8
14 23.06 ЮВ 3-5
{5}
н/о н/о +19.1 +5.6 41 +20 +20 1023.9 1012.9
15 23.06 Ю 2-4
{6}
н/о н/о +18.7 +6.9 46 +20 +20 1023.9 1012.9
16 23.06 В 1-2
{3}
н/о н/о +19.6 +5.7 40 +21 +21 комфорт 1023.7 1012.7
17 23.06 ЮВ 2-3
{4}
н/о н/о +20.1 +6.5 41 +22 +22 комфорт 1023.5 1012.5
18 23.06 ЮВ 2-4
{6}
н/о н/о +19.3 +6.1 42 +20 +20 1023.6 1012.6 +10.8 +20.5
19 23.06 Ю 2-3
{3}
н/о н/о +17.9 +9.0 56 +18 +18 1024.1 1013.0
20 23.06 Ю 1-2
{4}
н/о н/о +15.6 +9.3 66 +16 +16 1024.7 1013.5
21 23.06 З 1-1
{2}
н/о н/о +12.8 +9.1 78 +13 +13 1025.6 1014.3
22 23.06 -2
{2}
н/о н/о +11.7 +8.0 78 1026.3 1015.0
23 23.06 СВ 2-4
{5}
н/о н/о +11.5 +7.6 77 +10 +10 1026.9 1015.6
00 24.06 СВ 2-4
{5}
н/о н/о +11.4 +6.9 74 +10 +10 1027.7 1016.3
01 24.06 СВ 2-4
{5}
н/о н/о +10.4 +6.9 79 +9 +9 1027.9 1016.5
02 24.06 СВ 2-4
{4}
н/о н/о +10.2 +6.4 77 +9 +9 1028.2 1016.8
03 24.06 В 2-4
{4}
н/о н/о +10.3 +6.3 76 +9 +9 1028.6 1017.2
05 24.06 СВ 2-4
{4}
н/о н/о +10.9 +6.5 74 +10 +10 1029.1 1017.7
06 24.06 СВ 2-3
{5}
н/о н/о +12.7 +7.0 68 +12 +12 1029.2 1017.9 +10.0 +19.3
07 24.06 В 2-3
{4}
н/о н/о +15.0 +6.8 58 +15 +15 1029.0 1017.8
08 24.06 В 2-3
{3}
н/о н/о +16.4 +7.1 54 +17 +17 1029.0 1017.8

 

Местоположение метеостанции Гварв (Норвегия): широта 59.38 долгота 9.21 высота над уровнем моря 93 м.

В архиве по умолчанию представлена погода во Гварве за последнюю неделю. Архивные данные за месяц целиком и за предыдущие месяцы, начиная с января 2011 года, Вы можете получить, выбрав интересующий диапазон дат из раскрывающегося списка и нажав кнопку "Ввод!".


*Определитесь, кто Вы:
робот инопланетянин человек

Внимание! Время в таблицах - всемирное. Для получения местного времени необходимо прибавить поправку, которая равна 1 ч.

Смотрите также архив погоды в соседних городах и на ближайших метеорологических станциях:

Погода в Конгсберг Браннстас (Норвегия) (36 км)
Погода в Порсгрунне (Норвегия) (41 км)
Погода в Твейтсунде (Норвегия) (55 км)
Погода в Гьерстаде (Норвегия) (58 км)
Погода в Хойдалсмо (Норвегия) (59 км)
Погода на Гаустатоппене (Норвегия) (61 км)
Погода в Йомфрулянде (Норвегия) (61 км)
Погода в Санде-Галлеберге (Норвегия) (63 км)
Погода в Коннеруде (Норвегия) (64 км)
Погода в Драммен Берског (Норвегия) (66 км)

Пояснения к столбцам:

Ветер - указаны скорость ветра в м/с - средняя за 10 мин, порывы в срок и между сроками (в фигурных скобках) и направление, откуда дует ветер: С - северный, СВ - северо-восточный, В - восточный, ЮВ - юго-восточный, Ю - южный, ЮЗ - юго-западный, З - западный, СЗ - северо-западный.
Видимость - горизонтальная дальность видимости в метрах или километрах. При видимости от 1 до 10 км при отсутствии осадков обычно наблюдается дымка, при ухудшении видимости до 1 км и менее - туман. В сухую погоду видимость может ухудшаться дымом, пылью или мглою.
Явления - указаны атмосферные явления, наблюдавшиеся в срок или в последний час перед сроком; фигурными скобками обозначены явления, наблюдавшиеся между сроками (за 1-3 часа до срока); квадратными скобками обозначены град или гололедные отложения с указанием их диаметра в мм.
Облачность - указаны через наклонную черту общая и нижняя облачность в баллах и высота нижней границы облаков в метрах; квадратными скобками обозначены формы облаков: Ci - перистые, Cs - перисто-слоистые, Cc - перисто-кучевые, Ac - высококучевые, As - высокослоистые, Sc - слоисто-кучевые, Ns - слоисто-дождевые, Cu - кучевые, Cb - кучево-дождевые. Подробнее классификацию облаков см. в Атласе облаков (PDF).
T - Температура воздуха - температура, измеренная на высоте 2 м над землей.
Td - Температура точки росы - температура, при понижении до которой содержащийся в воздухе водяной пар достигнет насыщения.
f - Относительная влажность воздуха - влажноcть воздуха, измеренная на высоте 2 м над землей.
Te - Эффективная температура - температура, которую ощущает одетый по сезону человек в тени. Характеристика душности погоды. При расчете учитывается влияние влажности воздуха и скорости ветра на теплоощущения человека.
Tes - Эффективная температура на солнце - температура, которую ощущает человек, с поправкой на солнечный нагрев. Характеристика знойности погоды. Зависит от высоты солнца над горизонтом, облачности и скорости ветра. Ночью, в пасмурную погоду, а также при ветре 12 м/с и более поправка равна нулю.
P - Атмосферное давление - приведенное к уровню моря атмосферное давление.
Po - Атмосферное давление - измеренное на уровне метеостанции атмосферное давление.
Tmin - Минимальная температура - минимум температуры воздуха на высоте 2 м над землей.
Tmax - Максимальная температура - максимум температуры воздуха на высоте 2 м над землей.
R - Количество осадков - Количество выпавших осадков за период времени, мм. При наведении курсора мыши на число - период времени, за который выпало указанное количество осадков.
R24 - Количество осадков - Количество выпавших осадков за 24 часа, мм.
S - Снежный покров - Высота снежного покрова, см. При наведении курсора мыши на число - состояние снежного покрова и степень покрытия местности в баллах.